Regional Weather Roundup
Issued by NWS

Home | Current Version | Previous Version | Text Only | Print | Product List | Glossary On
Versions: 1 2 3 4 5 6 7 8 9 10 11 12 13 14 15 16 17 18 19 20 21 22 23 24 25 26 27 28 29 30 31 32 33 34 35 36 37 38 39 40 41 42 43 44 45 46 47 48 49 50
000
ASUS43 KTOP 231708
RWRKS

WEATHER ROUNDUP FOR KANSAS
NATIONAL WEATHER SERVICE GOODLAND KS
1200 PM CDT MON APR 23 2018

NOTE:  "FAIR" INDICATES FEW OR NO CLOUDS BELOW 12,000 FEET WITH NO
SIGNIFICANT WEATHER AND/OR OBSTRUCTIONS TO VISIBILITY.

KSZ001>006-013>018-027>032-041>047-231800-
NORTHWEST KANSAS

CITY           SKY/WX    TMP DP  RH WIND       PRES   REMARKS
GOODLAND       SUNNY     58  39  49 S13G24    30.14F
HAYS           SUNNY     64  40  41 NE8       30.17F
HILL CITY        N/A    N/A N/A N/A MISG      30.18F
RUSSELL        SUNNY     65  42  43 CALM      30.16F
$$

KSZ061>065-074>080-084>089-231800-
SOUTHWEST KANSAS

CITY           SKY/WX    TMP DP  RH WIND       PRES   REMARKS
DODGE CITY     MOSUNNY   63  42  46 E8        30.18S
ELKHART        SUNNY     62  44  51 S13       30.16F
GARDEN CITY    SUNNY     61  39  44 VRB3      30.17F
GREAT BEND     SUNNY     63  42  46 VRB5      30.17F
LIBERAL        SUNNY     61  40  45 S7        30.18F
PRATT          SUNNY     64  40  42 N6        30.16F
$$

KSZ066>073-081>083-090>101-231800-
SOUTHEAST KANSAS

CITY           SKY/WX    TMP DP  RH WIND       PRES   REMARKS
CHANUTE        CLOUDY    67  46  47 N10       30.10S
COFFEYVILLE    CLOUDY    65  48  54 N12       30.08F
HUTCHINSON     SUNNY     66  43  43 VRB7      30.14F
MEDICINE LODGE   N/A     67  43  41 N10       30.14F
NEWTON         PTSUNNY   65  37  35 N10       30.14F
PARSONS        CLOUDY    65  47  52 N8        30.09F
WICHITA INTL   MOSUNNY   66  35  31 N13       30.13F
WICHITA JABRA  CLOUDY    66  35  31 N9        30.13F
WINFIELD       CLOUDY    65  43  44 N12       30.13S
$$

KSZ007>012-019>026-033>040-048>060-102>105-231800-
NORTHEAST KANSAS

CITY           SKY/WX    TMP DP  RH WIND       PRES   REMARKS
CONCORDIA      SUNNY     67  33  28 MISG      30.15F
EMPORIA        SUNNY     67  41  38 N12G20    30.11F
LAWRENCE       SUNNY     71  37  28 NE15      30.10F
MANHATTAN      MOSUNNY   68  34  28 E8        30.13F
MARYSVILLE     SUNNY     70  32  24 E15       30.14S
OLATHE IND     SUNNY     69  45  41 N13G24    30.10S
OLATHE EXE     SUNNY     67  42  40 N15       30.09F
SALINA         SUNNY     68  36  30 NW7       30.15F
TOPEKA BILLARD SUNNY     69  38  32 N10G22    30.11F
TOPEKA FORBES  MOSUNNY   70  38  31 N15       30.11F
$$




USA.gov is the U.S. government's official web portal to all federal, state and local government web resources and services.